sat.trackr.live / text

‹ back to catalog

STARLINK-36753

NORAD 67694 · 2026-025B

PAYLOAD ACTIVE UNKNOWN

§ Identity

Operator
Country
US
Launch date
2026-02-07
Launch site
AFWTR
Launch vehicle
Mass (kg)
RCS (m²)

Purposes: comms

External: N2YO · Heavens-Above · Gunter

§ Orbital elements

Epoch: 2026-05-25T04:55:09.437376Z

Period
93.91 min
Inclination
97.2829°
Eccentricity
0.0001555
Mean motion
15.33462134 rev/d
Perigee alt
464.4 km
Apogee alt
466.6 km
Semi-major
6,843.6 km
B*
1.0490e-3
RAAN
256.7392°
Arg perigee
84.4025°
Mean anomaly
275.7395°
Rev number
1,774

§ Raw data

STARLINK-367531 67694U 26025B   26145.20497034  .00033960  00000+0  10490-2 0  99902 67694  97.2829 256.7392 0001555  84.4025 275.7395 15.33462134 17743

JSON: /api/v1/satellites/67694 · /tle

For live sub-satellite position, see the globe view (requires WebGL).

§ Visibility from observer

Set your observer location to see the next 7 days of passes ≥ 10°. The values pass through the URL so the page stays shareable.

No JS? Fill the form by hand. The geolocation button needs JavaScript.